This demonstration page uses our WeatherBlox Daily Observations layout. Learn more.

Left ArrowRight Arrow

Hourly Observations for May 22, 2020

Temp ( °F °C ) Dew Point ( °F °C ) Humidity (%) Winds ( mph kmh ) Pressure ( in mb ) Visibility ( mi km ) Precip ( " mm )
12:15 am 00:15 Cloudy with Mist and Fog 62 16.6 61 16 96 96 SE 13 20 29.85 1011 5 8.0467 0 0
12:35 am 00:35 Cloudy with Mist and Fog 62 16.6 61 16.1 97 97 SE 16 26 29.85 1011 5 8.0467 0 0
12:55 am 00:55 Cloudy with Nearby Thunderstorms 62 16.7 61 16.1 96 96 SE 15 24 29.85 1011 7 11.26538 0.01 0.254
1:15 am 01:15 Cloudy with Rain 62 16.7 61 16 96 96 SE 20 31 29.83 1010 5 8.0467 0.08 2.032
1:35 am 01:35 Cloudy with Light Rain 62 16.5 60 15.8 96 96 SE 14 22 29.84 1010 7 11.26538 0.09 2.286
1:55 am 01:55 Cloudy 62 16.5 60 15.7 95 95 ESE 10 17 29.82 1010 7 11.26538 0.09 2.286
2:15 am 02:15 Cloudy with Nearby Thunderstorms 61 16.3 60 15.6 96 96 E 7 11 29.82 1010 7 11.26538 0 0
2:35 am 02:35 Cloudy with Thunderstorms 61 16.3 60 15.6 96 96 E 3 6 29.84 1010 7 11.26538 0 0
2:55 am 02:55 Cloudy with Nearby Thunderstorms 61 16.3 60 15.6 96 96 E 3 6 29.85 1011 7 11.26538 0 0
3:15 am 03:15 Cloudy with Thunderstorms 61 16.3 60 15.7 96 96 E 6 9 29.82 1010 7 11.26538 0 0
3:35 am 03:35 Cloudy 61 16.3 60 15.7 96 96 E 8 13 29.83 1010 7 11.26538 0 0
3:55 am 03:55 Cloudy with Light Rain 61 16.2 60 15.6 96 96 ENE 8 13 29.83 1010 5 8.0467 0 0
4:15 am 04:15 Cloudy with Light Rain 61 16.3 60 15.7 96 96 NNE 8 13 29.81 1009 4 6.43736 0.01 0.254
4:35 am 04:35 Cloudy with Light Rain 61 16.1 60 15.6 97 97 E 12 19 29.79 1009 4 6.43736 0.03 0.762
4:55 am 04:55 Cloudy with Mist and Fog 61 16 60 15.5 97 97 ESE 14 22 29.78 1008 5 8.0467 0.03 0.762
5:15 am 05:15 Cloudy 61 16 60 15.5 97 97 ESE 15 24 29.78 1008 4 6.43736 0 0
5:35 am 05:35 Cloudy with Light Rain 61 16 60 15.5 97 97 E 14 22 29.78 1008 3 4.82802 0 0
5:55 am 05:55 Cloudy 61 16 60 15.5 97 97 ESE 10 17 29.78 1008 4 6.43736 0.01 0.254
6:15 am 06:15 Cloudy with Thunderstorms 61 16 60 15.5 97 97 S 8 13 29.8 1009 5 8.0467 0.02 0.508
6:35 am 06:35 Cloudy with Light Rain 61 16 60 15.5 97 97 SE 12 19 29.82 1010 5 8.0467 0.06 1.524
6:55 am 06:55 Cloudy 61 16 60 15.3 96 96 SSE 8 13 29.82 1010 5 8.0467 0.07 1.778
7:15 am 07:15 Cloudy with Rain 60 15.8 59 15.2 96 96 SE 6 9 29.82 1010 4 6.43736 0 0
7:35 am 07:35 Cloudy 60 15.8 60 15.3 97 97 SE 6 9 29.82 1010 2.5 4.02335 0.01 0.254
7:55 am 07:55 Cloudy with Light Rain 60 15.8 60 15.3 97 97 Calm 29.82 1010 3 4.82802 0.02 0.508
8:15 am 08:15 Cloudy with Rain 61 15.9 60 15.5 97 97 ESE 6 9 29.82 1010 3 4.82802 0.01 0.254
8:35 am 08:35 Cloudy with Light Rain 61 16 60 15.6 97 97 Calm 29.83 1010 4 6.43736 0.03 0.762
8:55 am 08:55 Cloudy with Light Rain 61 16 60 15.5 97 97 E 7 11 29.85 1011 4 6.43736 0.04 1.016
9:15 am 09:15 Cloudy with Light Rain 60 15.6 59 15.1 97 97 ENE 5 7 29.84 1011 7 11.26538 0.02 0.508
9:35 am 09:35 Cloudy with Light Rain 60 15.5 58 14.5 94 94 NE 8 13 29.85 1011 10 16.0934 0.03 0.762
9:55 am 09:55 Cloudy with Light Rain 60 15.6 59 14.8 95 95 NE 9 15 29.84 1011 10 16.0934 0.04 1.016
10:15 am 10:15 Cloudy with Rain 60 15.6 58 14.7 94 94 N 9 15 29.84 1011 7 11.26538 0.02 0.508
10:35 am 10:35 Cloudy with Light Rain 60 15.6 56 13.5 87 87 N 10 17 29.83 1010 10 16.0934 0.04 1.016
10:55 am 10:55 Cloudy with Light Rain 60 15.6 56 13.4 87 87 NNW 12 19 29.84 1011 10 16.0934 0.05 1.27
11:15 am 11:15 Cloudy with Light Rain 60 15.5 56 13.2 86 86 NNW 12 19 29.85 1011 10 16.0934 0.01 0.254
11:35 am 11:35 Cloudy with Rain 60 15.5 55 12.7 84 84 NNW 9 15 29.85 1011 10 16.0934 0.02 0.508
11:55 am 11:55 Cloudy with Light Rain 59 15.1 54 12.3 83 83 NNW 13 20 29.85 1011 10 16.0934 0.06 1.524
12:15 pm 12:15 Cloudy with Light Rain 59 15.1 54 12.2 83 83 NNW 13 20 29.85 1011 10 16.0934 0.02 0.508
12:35 pm 12:35 Cloudy with Rain 59 15 54 12.2 83 83 NW 9 15 29.85 1011 7 11.26538 0.06 1.524
12:55 pm 12:55 Cloudy with Rain 59 14.8 55 12.5 86 86 NW 9 15 29.85 1011 10 16.0934 0.09 2.286
1:15 pm 13:15 Cloudy with Rain 59 14.8 55 12.7 87 87 NW 8 13 29.85 1011 10 16.0934 0.03 0.762
1:35 pm 13:35 Cloudy with Light Rain 59 14.9 55 12.9 88 88 NNW 10 17 29.83 1010 10 16.0934 0.05 1.27
1:55 pm 13:55 Cloudy with Rain 59 15 55 12.9 87 87 N 16 26 29.82 1010 10 16.0934 0.07 1.778
2:15 pm 14:15 Cloudy with Rain 60 15.3 55 13 86 86 NNE 15 24 29.81 1009 10 16.0934 0.02 0.508
2:35 pm 14:35 Cloudy with Light Rain 60 15.6 54 12.1 80 80 N 23 37 29.79 1009 10 16.0934 0.03 0.762
2:55 pm 14:55 Cloudy with Rain 59 15.1 54 12.4 84 84 NNE 21 33 29.8 1009 7 11.26538 0.06 1.524
3:15 pm 15:15 Cloudy with Light Rain 60 15.4 55 12.5 83 83 NNE 18 30 29.8 1009 10 16.0934 0.01 0.254
3:35 pm 15:35 Cloudy with Light Rain 60 15.4 54 12.1 81 81 NNE 22 35 29.79 1009 10 16.0934 0.03 0.762
3:55 pm 15:55 Cloudy with Rain 59 15.1 53 11.7 80 80 NNE 21 33 29.79 1009 10 16.0934 0.05 1.27
4:15 pm 16:15 Cloudy with Light Rain 59 15.1 53 11.5 79 79 N 16 26 29.8 1009 10 16.0934 0.01 0.254
4:35 pm 16:35 Cloudy with Rain 59 15.1 54 12.1 82 82 NNE 13 20 29.8 1009 10 16.0934 0.02 0.508
4:55 pm 16:55 Cloudy with Rain 59 15 54 12 82 82 NE 18 30 29.79 1009 10 16.0934 0.05 1.27
5:15 pm 17:15 Cloudy with Light Rain 59 15.2 54 12 81 81 NNE 13 20 29.79 1009 10 16.0934 0.02 0.508
5:35 pm 17:35 Cloudy 60 15.6 54 12.3 81 81 NNW 9 15 29.78 1009 10 16.0934 0.03 0.762
5:55 pm 17:55 Cloudy 60 15.6 55 12.9 84 84 WNW 9 15 29.78 1009 10 16.0934 0.03 0.762
6:15 pm 18:15 Cloudy 60 15.7 56 13.2 85 85 WNW 9 15 29.78 1009 10 16.0934 0 0
6:35 pm 18:35 Cloudy 61 16.1 55 12.7 80 80 NW 6 9 29.77 1008 10 16.0934 0 0
6:55 pm 18:55 Cloudy 61 16 55 12.9 82 82 NW 6 9 29.78 1008 10 16.0934 0 0
7:15 pm 19:15 Mostly Cloudy 61 16.2 55 12.6 79 79 NNW 6 9 29.78 1008 10 16.0934 0 0
7:35 pm 19:35 Partly Cloudy 62 16.8 53 11.7 72 72 NNW 8 13 29.78 1009 10 16.0934 0 0
7:55 pm 19:55 Partly Cloudy 61 16.2 54 12.2 77 77 NNE 7 11 29.78 1008 10 16.0934 0 0
8:15 pm 20:15 Sunny 61 16.1 54 12.2 78 78 WNW 5 7 29.78 1008 10 16.0934 0 0
8:35 pm 20:35 Sunny 61 16.3 53 11.7 74 74 NNW 5 7 29.78 1008 10 16.0934 0 0
8:55 pm 20:55 Clear 60 15.6 54 12.2 80 80 N 3 6 29.78 1009 10 16.0934 0 0
9:15 pm 21:15 Clear 59 15 55 12.5 85 85 Calm 29.79 1009 10 16.0934 0 0
9:35 pm 21:35 Clear 59 15 54 12.3 84 84 Calm 29.8 1009 10 16.0934 0 0
9:55 pm 21:55 Clear 59 14.8 54 12.2 85 85 Calm 29.81 1010 10 16.0934 0 0
10:15 pm 22:15 Clear 57 13.9 54 12.1 89 89 Calm 29.82 1010 10 16.0934 0 0
10:35 pm 22:35 Clear 56 13.5 54 12 91 91 NE 3 6 29.83 1010 10 16.0934 0 0
10:55 pm 22:55 Clear 56 13.2 53 11.9 92 92 NE 3 6 29.83 1010 10 16.0934 0 0
11:15 pm 23:15 Clear 56 13.4 54 12.2 93 93 Calm 29.83 1010 10 16.0934 0 0
11:35 pm 23:35 Clear 56 13.4 53 11.9 91 91 Calm 29.82 1010 10 16.0934 0 0
11:55 pm 23:55 Clear 56 13.3 54 12.4 94 94 Calm 29.82 1010 10 16.0934 0 0

Powered by AerisWeather